Rasht, ایران

08:17 PM +0330 on دسامبر 11, 2018 (GMT +0330)
Rasht | | Change Station

Elev -39 ft 37.33 °N, 49.61 °E | Updated 47 minutes ago

مه
مه
54 °F
Feels Like 54 °F
N
0
باد متغير باد from شمال

امروز
High -- | Low -- °F
--% Chance of Precip.
دیروز
High -- | Low -- °F
Precip. -- در
فشار 29.86 در
ديد 1.9 مايل، ميل (در برابر كيلومتر
ابری
قطره شبنم 52 °F
رطوبت 94%
بارش باران 0.00 در
برف عمیق Not available.
7:15 AM 4:54 PM
Waxing Crescent, 17% visible
METAR OIGG 111600Z 00000KT 3000 BR NSC 12/11 Q1011
فشار 29.86 در
ديد 1.9 مايل، ميل (در برابر كيلومتر
ابری
قطره شبنم 52 °F
رطوبت 94%
بارش باران 0.00 در
برف عمیق Not available.
7:15 AM 4:54 PM
Waxing Crescent, 17% visible
METAR OIGG 111600Z 00000KT 3000 BR NSC 12/11 Q1011

Get Severe Weather Alerts

Thanks for signing up!

Be on the lookout for a verification email in your inbox.

You'll start receiving the daily forecast at 6 AM.

×

10-Day Weather Forecast

No radar image for this location.
×

Almanac

ستاره شناسی

Dec. 11, 2018 Rise Set
وقت حقیقی
تاریک و روشن اجتماعی
تاریک روشن دریایی
شفق و فلق نجومی
ماه
میزان روشنایی روز
طول روز
Tomorrow will be .
, % of the Moon is Illuminated

Today's Extremes

Country Highs Country Lows

Community

WunderPhotos

Category 6

Welcome to Category 6. This is the collective home for Weather Underground's featured writeups by Dr. Jeff Masters (right), Bob Henson (left), Chris Burt, and other regular contributors.

Nearby

تمیزی هوا

  تمیزی هوا AQ Index آلاینده
Not available.

عمق برف

Station Depth Elevation

Earthquake Activity

شهر Distance Mag. Time & Date
Minimum magnitude displayed is 2.5.

Coastal Water Temperatures

منطقه درجه حرارت

Stations

Nearby Weather Stations

Station Location دما باد سرد قطره شبنم رطوبت باد Precip. Elev ارتقا دادن Type